Regional Weather Roundup
Issued by NWS

Home | Current Version | Previous Version | Graphics & Text | Print | Product List | Glossary Off
Versions: 1 2 3 4 5 6 7 8 9 10 11 12 13 14 15 16 17 18 19 20 21 22 23 24 25 26 27 28 29 30 31 32 33 34 35 36 37 38 39 40 41 42 43 44 45 46 47 48 49 50

000
ASUS43 KDTX 250401
RWRMI
MICHIGAN HOURLY REGIONAL WEATHER ROUNDUP
NATIONAL WEATHER SERVICE DETROIT/PONTIAC MI
1100 PM EST FRI FEB 24 2017

NOTE: "FAIR" INDICATES FEW OR NO CLOUDS BELOW 12,000 FEET WITH NO
SIGNIFICANT WEATHER AND/OR OBSTRUCTION TO VISIBILITY.

MIZ047>049-052>055-059>063-066>070-074>076-081>083-250500-
SOUTHEAST LOWER MICHIGAN

CITY           SKY/WX    TMP DP  RH WIND       PRES   REMARKS
ADRIAN         CLOUDY    53  49  86 W17G26    29.49R
ALMA           FOG       39  39  98 SW6       29.44F VSB 1
ANN ARBOR      CLOUDY    57  54  89 SW14      29.44S
BAD AXE        LGT RAIN  52  52  99 SW6       29.39R
CARO           LGT RAIN  41  41  99 SW7       29.42R
DETROIT CITY   LGT RAIN  57  54  89 SW14G26   29.45R FOG
DETROIT        RAIN      58  55  90 SW14      29.44F
FLINT          LGT RAIN  49  48  97 W15       29.44R
GROSSE ILE     HVY RAIN  53  50  91 S12       29.47R
HILLSDALE      CLOUDY    45  43  93 W15       29.47S FOG
HOWELL         LGT RAIN  52  49  90 W13G18    29.44S

CITY           SKY/WX    TMP DP  RH WIND       PRES   REMARKS
JACKSON        CLOUDY    46  42  86 W20G29    29.48R
LAMBERTVILLE   RAIN      58  55  89 W9G16     29.47R
LANSING        CLOUDY    46  40  79 W20G30    29.47R HAZE
LAPEER         RAIN      57  53  87 W14G21    29.41R
MASON          CLOUDY    48  46  95 W9G21     29.47R
MONROE         LGT RAIN  56  55  95 SW10G18   29.45R
PONTIAC        LGT RAIN  57  54  89 SW10      29.43R
PORT HOPE        N/A     50  50 100 VRB5      29.36S
PORT HURON     LGT RAIN  55  54  94 S6        29.41S
TRI CITIES     CLOUDY    38  38 100 NW5       29.42S FOG     WCI  34
MIDLAND        CLOUDY    39  37  95 CALM      29.42F FOG
TROY           RAIN      57  54  90 S9G18     29.45R
SAGINAW HB     CLOUDY    37  36  93 S3        29.43F FOG
$$
MIZ043>046-050>051-056>058-064>065-071>073-077>080-250500-
SOUTHWEST LOWER MICHIGAN

CITY           SKY/WX    TMP DP  RH WIND       PRES   REMARKS
BATTLE CREEK   CLOUDY    40  38  93 W22G29    29.53R WCI  30
BENTON HARBOR  CLOUDY    36  34  92 W9        29.57S WCI  29
BIG RAPIDS     FOG       37  36  97 SW3       29.42R VSB 1
COLDWATER      CLOUDY    43  42  97 W21G28    29.52F FOG
FREMONT        FOG       38  38 100 SW10      29.46R VSB 1   WCI  31
HOLLAND        CLOUDY    37  36  96 W17       29.53S WCI  27
GRAND RAPIDS   CLOUDY    40  36  86 SW21G29   29.49R WCI  30
IONIA          CLOUDY    42  39  89 SW14G29   29.47R
KALAMAZOO      CLOUDY    40  35  83 W14G21    29.55R WCI  32
LUDINGTON      CLOUDY    34  34 100 CALM      29.46R FOG
MARSHALL       CLOUDY    42  41  94 W18G24    29.52R
MOUNT PLEASANT CLOUDY    37  37  99 CALM      29.43S FOG
MUSKEGON       CLOUDY    37  36  96 W8        29.50S WCI  31
SOUTH HAVEN    CLOUDY    35  35  99 W12G18    29.55F WCI  27
$$
MIZ016>042-250500-
NORTHERN LOWER MICHIGAN

CITY           SKY/WX    TMP DP  RH WIND       PRES   REMARKS
ALPENA         CLOUDY    34  34 100 NE9       29.44F FOG     WCI  27
BEAVER ISLAND  CLOUDY    26  26  99 NE9       29.48F FOG     WCI  17
BELLAIRE       CLOUDY    33  32  96 N5        29.42F FOG     WCI  28
CADILLAC       CLOUDY    32  32  99 CALM      29.38S FOG
CHARLEVOIX     CLOUDY    32  32 100 NE12      29.46F FOG     WCI  23
FRANKFORT      CLOUDY    33  32  96 N5        29.45S FOG     WCI  28
GAYLORD        CLOUDY    33  29  85 NE10      29.40F FOG     WCI  25
GRAYLING       CLOUDY    33  32  96 NE9       29.40F FOG     WCI  25
HARBOR SPRINGS CLOUDY    31  30  96 NE13G21   29.44F FOG     WCI  21
HOUGHTON LAKE  CLOUDY    33  32  96 E8        29.39F FOG     WCI  26
MANISTEE       MIX PCPN  34  33  96 NW5       29.45R FOG     WCI  30
OSCODA         MIX PCPN  36  35  97 N3        29.40S
PELLSTON       LGT SNOW  31  28  89 NE12      29.46F FOG     WCI  22
ROGERS CITY    CLOUDY    32  31  97 NE5       29.47F FOG     WCI  28
TRAVERSE CITY  CLOUDY    34  33  96 NE6       29.43S FOG     WCI  29
$$
MIZ007>008-015-250500-
EASTERN UPPER MICHIGAN

CITY           SKY/WX    TMP DP  RH WIND       PRES   REMARKS
KINROSS        MIX PCPN  23  21  92 N12       29.52F FOG     WCI  12
MACKINAC ISLAN CLOUDY    27  27 100 NE14      29.49F FOG     WCI  16
NEWBERRY       CLOUDY    20  19  97 N13G18    29.51F FOG     WCI   7
S. S. MARIE    CLOUDY    25  17  72 NE10G20   29.54F WCI  15
MUNISING         N/A     26  23  88 N20       29.57F WCI  12
$$
MIZ004>006-011>014-085-250500-
CENTRAL UPPER MICHIGAN

CITY           SKY/WX    TMP DP  RH WIND       PRES   REMARKS
MANISTIQUE     LGT SNOW  24  23  97 N14       29.53S WCI  11
ESCANABA       MIX PCPN  26  23  88 N8G17     29.56F FOG     WCI  18
MENOMINEE      MIX PCPN  23  21  92 N13       29.58F FOG     WCI  11
SAWYER-GWINN   LGT SNOW  22  20  91 N18G24    29.57F WCI   7
$$
MIZ001>003-009>011-084-250500-
WESTERN UPPER MICHIGAN

CITY           SKY/WX    TMP DP  RH WIND       PRES   REMARKS
IRON MOUNTAIN  MIX PCPN  20  13  74 NW16      29.61S WCI   6
HOUGHTON       LGT SNOW  19  14  81 N12       29.70F VSB 1   WCI   7
COPPER HARBOR    N/A     23  18  81 E21G29    29.71F WCI   8
IRONWOOD       LGT SNOW  17  14  88 N10       29.77F VSB 3/4 WCI   5
$$

ABBREVIATIONS USED IN REMARKS
   TC - TEMPERATURE IN CELSIUS
  WCI - WIND CHILL INDEX
   HX - HEAT INDEX
  VSB - VISIBILITY





USA.gov is the U.S. government's official web portal to all federal, state and local government web resources and services.